Mount Holly, NJ

12:52 PM EDT on June 28, 2017 (GMT -0400)
South Jersey Regional

Weather History for KVAY - May, 2014

Change the Weather History Date:

Friday, May 2, 2014

  Actual Average (KPNE) Record (KPNE)
Temperature  
Mean Temperature 60 °F -  
Max Temperature 68 °F 68 °F 87 °F (2001)
Min Temperature 52 °F 46 °F 37 °F (2005)
Degree Days  
Heating Degree Days 5    
Growing Degree Days 10 (Base 50)    
Moisture  
Dew Point 39 °F    
Average Humidity 45    
Maximum Humidity 72    
Minimum Humidity 33    
Precipitation  
Precipitation 0.00 in - - ()
Sea Level Pressure  
Sea Level Pressure 29.80 in    
Wind  
Wind Speed 6 mph (West)    
Max Wind Speed 17 mph    
Max Gust Speed 25 mph    
Visibility 10 miles    
Events      
Averages and records for this station are not official NWS values.
T = Trace of Precipitation, MM = Missing Value Source: NWS Daily Summary

Daily Weather History Graph

Daily Weather History Graph

Search for Another Location

Airport or City:

Trip Planner

Search our weather history database for the weather conditions in past years. The results will help you decide how hot, cold, wet, or windy it might be!

Date:

Astronomy

May. 02, 2014 Rise Set
Actual Time 5:58 AM EDT 7:55 PM EDT
Civil Twilight 5:29 AM EDT 8:24 PM EDT
Nautical Twilight 4:53 AM EDT 9:00 PM EDT
Astronomical Twilight 4:14 AM EDT 9:39 PM EDT
Moon 8:33 AM EDT (5/2) 11:15 PM EDT (5/2)
Length of Visible Light 14h 55m
Length of Day
13h 56m
Waxing Crescent, 12% of the Moon is Illuminated
May 2
Waxing Crescent
May 6
First Quarter
May 14
Full
May 21
Last Quarter
May 28
New

Hourly Weather History & Observations

Time (EDT) Temp. Dew Point Humidity Pressure Visibility Wind Dir Wind Speed Gust Speed Precip Events Conditions
12:54 AM 60.1 °F 51.1 °F 72% 29.76 in 10.0 mi NW 4.6 mph - N/A   Mostly Cloudy
1:54 AM 59.0 °F 46.0 °F 62% 29.75 in 10.0 mi NW 3.5 mph - 0.00 in   Overcast
2:54 AM 59.0 °F 42.1 °F 53% 29.75 in 10.0 mi NW 5.8 mph - N/A   Overcast
3:54 AM 57.9 °F 41.0 °F 53% 29.76 in 10.0 mi WNW 4.6 mph - 0.00 in   Overcast
4:54 AM 57.9 °F 39.0 °F 49% 29.79 in 10.0 mi West 3.5 mph - N/A   Overcast
5:54 AM 57.0 °F 41.0 °F 55% 29.79 in 10.0 mi WNW 3.5 mph - N/A   Overcast
6:54 AM 57.0 °F 41.0 °F 55% 29.80 in 10.0 mi West 4.6 mph - N/A   Overcast
7:54 AM 57.9 °F 39.9 °F 51% 29.81 in 10.0 mi West 4.6 mph - N/A   Overcast
8:54 AM 60.1 °F 39.0 °F 46% 29.81 in 10.0 mi West 3.5 mph - N/A   Overcast
9:54 AM 63.0 °F 37.0 °F 38% 29.81 in 10.0 mi West 9.2 mph - N/A   Clear
10:54 AM 63.0 °F 35.1 °F 35% 29.81 in 10.0 mi West 8.1 mph - N/A   Mostly Cloudy
11:54 AM 64.0 °F 36.0 °F 35% 29.80 in 10.0 mi West 8.1 mph - N/A   Mostly Cloudy
12:54 PM 66.0 °F 36.0 °F 33% 29.79 in 10.0 mi SW 9.2 mph - N/A   Mostly Cloudy
1:54 PM 64.9 °F 35.1 °F 33% 29.79 in 10.0 mi West 11.5 mph 21.9 mph N/A   Overcast
2:54 PM 66.0 °F 36.0 °F 33% 29.79 in 10.0 mi West 17.3 mph 25.3 mph N/A   Overcast
3:54 PM 66.9 °F 37.0 °F 33% 29.78 in 10.0 mi West 12.7 mph - N/A   Mostly Cloudy
4:54 PM 66.0 °F 37.0 °F 34% 29.78 in 10.0 mi West 11.5 mph 19.6 mph N/A   Mostly Cloudy
5:54 PM 64.9 °F 37.0 °F 36% 29.80 in 10.0 mi West 10.4 mph - N/A   Mostly Cloudy
6:54 PM 66.0 °F 37.0 °F 34% 29.81 in 10.0 mi Variable 5.8 mph - N/A   Scattered Clouds
7:54 PM 64.0 °F 37.0 °F 37% 29.83 in 10.0 mi West 8.1 mph - N/A   Clear
8:54 PM 61.0 °F 37.0 °F 41% 29.85 in 10.0 mi Variable 3.5 mph - N/A   Clear
9:54 PM 60.1 °F 37.0 °F 42% 29.87 in 10.0 mi West 3.5 mph - N/A   Clear
10:54 PM 54.0 °F 41.0 °F 62% 29.88 in 10.0 mi Calm Calm - N/A   Scattered Clouds
11:54 PM 52.0 °F 41.0 °F 66% 29.88 in 10.0 mi Calm Calm - N/A   Clear